Location: Kawakawa
(35.3830°S, 174.0670°E)
Time: 14:30:09
(UTC+13:00)

CZ-2D R/B - Pass Details

Date: 24 January 2019
Orbit: 523 x 538 km, 97.4° (Epoch: 13 October)

Event Time Altitude Azimuth Distance (km) Brightness Sun altitude
Rises 21:26:11 0° 172° (S) 2,729 7.2 -9.6°
Reaches altitude 10° 21:28:20 10° 174° (S) 1,830 6.3 -9.9°
Maximum altitude 21:32:16 67° 256° (WSW) 596 3.7 -10.6°
Drops below altitude 10° 21:36:09 10° 339° (NNW) 1,803 5.8 -11.3°
Sets 21:38:15 0° 341° (NNW) 2,686 6.7 -11.6°
